Tracking 19170 objects as of 22-May-2018
HD Live streaming from Space Station
objects crossing your sky now

WESTFORD NEEDLES

Track WESTFORD NEEDLES now!
10-day predictions
WESTFORD NEEDLES is classified as:


NORAD ID: 18615
Int'l Code: 1963-014DK
Perigee: 2,374.9 km
Apogee: 4,816.9 km
Inclination: 86.5 °
Period: 165.0 minutes
Semi major axis: 9966 km
RCS: 0.075 m2 (small)
Launch date: May 9, 1963
Source: United States (US)
Launch site: AIR FORCE WESTERN TEST RANGE (AFWTR)
aabbcc
Your satellite tracking list
Your tracking list is empty




NASA's NSSDC Master Catalog

Two Line Element Set (TLE):
1 18615U 63014DK  18140.84371394 -.00001485  00000-0 -30382+0 0  9993
2 18615  86.5386  98.0661 1225041 294.9368  74.4402  8.72494538787491
Source of the keplerian elements: AFSPC